Colorado Springs, CO

12:11 AM MDT on May 30, 2017 (GMT -0600)
City Of Colorado Springs Municipal

Weather History for KCOS - January, 2014

Change the Weather History Date:

Thursday, January 30, 2014

  Actual Average Record
Temperature  
Mean Temperature 40 °F 30 °F  
Max Temperature 53 °F 43 °F 71 °F (1986)
Min Temperature 26 °F 18 °F -11 °F (1951)
Degree Days  
Heating Degree Days 25 34  
Month to date heating degree days 1029 1033  
Since 1 July heating degree days 3493 3605  
Cooling Degree Days 0 0  
Month to date cooling degree days 0 0  
Year to date cooling degree days 0 0  
Moisture  
Dew Point 28 °F    
Average Humidity 64    
Maximum Humidity 92    
Minimum Humidity 35    
Precipitation  
Precipitation 0.04 in 0.01 in 0.10 in (2005)
Month to date precipitation 0.50 0.31  
Year to date precipitation 0.50 0.31  
Snow  
Snow 0.20 in 0.10 in 1.80 in (1899)
Month to date snowfall 10.4 5.4  
Since 1 July snowfall 17.5 18.9  
Snow Depth T in    
Sea Level Pressure  
Sea Level Pressure 29.63 in    
Wind  
Wind Speed 14 mph (SSE)    
Max Wind Speed 51 mph    
Max Gust Speed 62 mph    
Visibility 7 miles    
Events Snow    
T = Trace of Precipitation, MM = Missing Value Source: NWS Daily Summary

Daily Weather History Graph

Daily Weather History Graph

Search for Another Location

Airport or City:

Trip Planner

Search our weather history database for the weather conditions in past years. The results will help you decide how hot, cold, wet, or windy it might be!

Date:

Astronomy

Jan. 30, 2014 Rise Set
Actual Time 7:06 AM MST 5:18 PM MST
Civil Twilight 6:38 AM MST 5:46 PM MST
Nautical Twilight 6:06 AM MST 6:18 PM MST
Astronomical Twilight 5:35 AM MST 6:49 PM MST
Moon 6:34 AM MST 5:32 PM MST
Length of Visible Light 11h 08m
Length of Day
10h 11m
Waning Crescent, 0% of the Moon is Illuminated
Jan 30
Waning Crescent
Jan 30
New
Feb 6
First Quarter
Feb 14
Full
Feb 22
Last Quarter

Hourly Weather History & Observations

Time (MST) Temp. Windchill Dew Point Humidity Pressure Visibility Wind Dir Wind Speed Gust Speed Precip Events Conditions
12:54 AM 44.1 °F 40.1 °F 21.9 °F 42% 29.43 in 10.0 mi Variable 6.9 mph - N/A   Scattered Clouds
1:54 AM 52.0 °F - 25.0 °F 35% 29.37 in 10.0 mi West 44.9 mph 62.1 mph N/A   Clear
2:54 AM 52.0 °F - 26.1 °F 37% 29.38 in 10.0 mi West 34.5 mph 47.2 mph N/A   Clear
3:54 AM 51.1 °F - 26.1 °F 38% 29.43 in 10.0 mi West 23.0 mph 40.3 mph N/A   Mostly Cloudy
4:34 AM 45.0 °F 36.9 °F 28.0 °F 52% 29.55 in 10.0 mi North 20.7 mph 25.3 mph N/A   Mostly Cloudy
4:54 AM 46.0 °F 38.5 °F 28.0 °F 50% 29.54 in 10.0 mi North 19.6 mph - N/A   Mostly Cloudy
5:54 AM 39.9 °F 32.1 °F 32.0 °F 73% 29.59 in 10.0 mi NNE 13.8 mph - N/A   Scattered Clouds
6:54 AM 37.0 °F 29.8 °F 30.9 °F 79% 29.65 in 10.0 mi NE 10.4 mph - N/A   Scattered Clouds
7:54 AM 37.9 °F 32.7 °F 27.0 °F 65% 29.66 in 10.0 mi WNW 6.9 mph - N/A   Mostly Cloudy
8:54 AM 39.9 °F 36.7 °F 27.0 °F 60% 29.69 in 10.0 mi North 4.6 mph - N/A   Mostly Cloudy
9:54 AM 42.1 °F - 28.0 °F 58% 29.69 in 10.0 mi Calm Calm - N/A   Mostly Cloudy
10:54 AM 44.1 °F - 27.0 °F 51% 29.69 in 10.0 mi Calm Calm - N/A   Mostly Cloudy
11:54 AM 43.0 °F 36.0 °F 30.0 °F 60% 29.67 in 10.0 mi South 13.8 mph - N/A   Overcast
12:54 PM 42.1 °F 33.3 °F 30.0 °F 62% 29.65 in 10.0 mi South 19.6 mph - N/A   Overcast
1:54 PM 39.0 °F 29.0 °F 30.0 °F 70% 29.61 in 9.0 mi SSE 20.7 mph - N/A   Overcast
2:40 PM 36.0 °F 24.7 °F 30.9 °F 82% 29.68 in 2.0 mi SSE 21.9 mph - 0.00 in Snow Light Snow
2:48 PM 35.6 °F 25.2 °F 32.0 °F 87% 29.67 in 1.0 mi SSE 18.4 mph - 0.00 in Snow Light Snow
2:54 PM 35.1 °F 24.8 °F 33.1 °F 92% 29.62 in 2.0 mi SSE 17.3 mph - 0.01 in Snow Light Snow
3:14 PM 36.0 °F 26.3 °F 32.0 °F 86% 29.68 in 3.0 mi SSE 16.1 mph - 0.00 in Snow Light Snow
3:54 PM 36.0 °F 26.0 °F 32.0 °F 86% 29.63 in 3.0 mi South 17.3 mph - 0.00 in Snow Light Snow
4:07 PM 36.0 °F 26.7 °F 30.9 °F 82% 29.68 in 3.0 mi South 15.0 mph - 0.00 in Snow Light Snow
4:25 PM 36.0 °F 28.5 °F 30.9 °F 82% 29.68 in 7.0 mi South 10.4 mph - 0.00 in Snow Light Snow
4:46 PM 36.0 °F 29.0 °F 33.1 °F 89% 29.69 in 8.0 mi South 9.2 mph - 0.00 in Snow Light Snow
4:54 PM 36.0 °F 28.0 °F 30.0 °F 79% 29.67 in 8.0 mi SSE 11.5 mph - 0.00 in Snow Light Snow
5:54 PM 35.1 °F 26.9 °F 28.9 °F 78% 29.70 in 7.0 mi SSE 11.5 mph - 0.00 in Snow Light Snow
6:54 PM 34.0 °F 27.2 °F 28.9 °F 82% 29.72 in 10.0 mi SSE 8.1 mph - 0.00 in   Overcast
7:54 PM 35.1 °F 27.9 °F 27.0 °F 72% 29.70 in 10.0 mi SE 9.2 mph - N/A   Overcast
8:54 PM 33.1 °F 26.9 °F 26.1 °F 75% 29.68 in 8.0 mi ESE 6.9 mph - 0.00 in Snow Light Snow
9:32 PM 32.0 °F 27.5 °F 26.1 °F 79% 29.66 in 9.0 mi SE 4.6 mph - 0.00 in Snow Light Snow
9:54 PM 32.0 °F 23.0 °F 26.1 °F 79% 29.67 in 8.0 mi SE 11.5 mph - 0.00 in Snow Light Snow
10:12 PM 30.9 °F 22.2 °F 26.1 °F 82% 29.65 in 7.0 mi SE 10.4 mph - 0.00 in Snow Light Snow
10:25 PM 30.0 °F 20.5 °F 26.1 °F 85% 29.66 in 2.0 mi SE 11.5 mph - 0.00 in Snow Light Snow
10:54 PM 28.0 °F 18.6 °F 26.1 °F 92% 29.68 in 2.0 mi SE 10.4 mph - 0.01 in Snow Light Snow
10:58 PM 28.0 °F 18.1 °F 26.1 °F 92% 29.65 in 0.8 mi SE 11.5 mph - 0.00 in Snow Light Snow
11:14 PM 27.0 °F 15.6 °F 25.0 °F 92% 29.65 in 0.8 mi ESE 13.8 mph - 0.02 in Snow Light Snow
11:27 PM 27.0 °F 16.7 °F 25.0 °F 92% 29.64 in 2.0 mi SE 11.5 mph - 0.02 in Snow Light Snow
11:33 PM 26.1 °F 13.6 °F 24.1 °F 92% 29.64 in 3.0 mi ESE 16.1 mph - 0.02 in Snow Light Snow
11:54 PM 26.1 °F 14.5 °F 23.0 °F 88% 29.69 in 4.0 mi SE 13.8 mph - 0.02 in Snow Light Snow